Regional Weather Roundup
Issued by NWS

Home | Current Version | Previous Version | Text Only | Print | Product List | Glossary Off
Versions: 1 2 3 4 5 6 7 8 9 10 11 12 13 14 15 16 17 18 19 20 21 22 23 24 25 26 27 28 29 30 31 32 33 34 35 36 37 38 39 40 41 42 43 44 45 46 47 48 49 50

000
ASUS43 KFSD 191310
RWRSD

WEATHER ROUNDUP FOR SOUTH DAKOTA
NATIONAL WEATHER SERVICE SIOUX FALLS SD
800 AM CDT SAT APR 19 2014

NOTE: "FAIR" INDICATES FEW OR NO CLOUDS BELOW 12,000 FEET WITH NO
SIGNIFICANT WEATHER AND/OR OBSTRUCTIONS TO VISIBILITY.


SDZ001>005-009-010-012>017-191400-
NORTHWEST AND NORTH CENTRAL SOUTH DAKOTA

CITY           SKY/WX    TMP DP  RH WIND       PRES   REMARKS
BUFFALO          N/A     35  23  61 W9        29.89R WCI  28
FAITH            N/A     41  30  65 W12       29.95R
MOBRIDGE       MOSUNNY   43  32  65 NW10      29.89R
$$

SDZ012>016-024>037-041>051-057-063-072>074-191400-
SOUTHWEST AND SOUTH CENTRAL SOUTH DAKOTA

CITY           SKY/WX    TMP DP  RH WIND       PRES   REMARKS
RAPID CTY ARPT MOCLDY    43  17  35 W8        29.99R
PIERRE         MOSUNNY   44  33  65 W7        29.95R
CUSTER         MOCLDY    36  30  79 W3        30.01R
ELLSWORTH AFB  PTCLDY    41  18  38 W2        29.99R
PHILIP         MOSUNNY   40  33  76 W12       29.98R
PINE RIDGE     CLOUDY    39  34  82 E6        30.01R
SPEARFISH      FAIR      41  14  33 W8        30.02R
WINNER         FAIR      48  38  68 W6        29.98R
$$

SDZ004>011-016>023-039-040-191400-
NORTHEAST SOUTH DAKOTA

CITY           SKY/WX    TMP DP  RH WIND       PRES   REMARKS
ABERDEEN       CLOUDY    45  38  76 SW6       29.90R
WATERTOWN      CLOUDY    51  42  71 SW10      29.89R
SISSETON         N/A     53  43  68 N6        29.84R
$$

SDZ017-020-022-023-036>040-048>070-191400-
SOUTHEAST SOUTH DAKOTA

CITY           SKY/WX    TMP DP  RH WIND       PRES   REMARKS
SIOUX FALLS    CLOUDY    54  40  59 S18G28    29.95R
HURON          CLOUDY    50  41  71 W8        29.92R
CHAMBERLAIN      N/A     50  39  66 NW6       29.96R
MITCHELL       CLOUDY    53  42  66 NW9       29.93R
YANKTON        PTSUNNY   54  41  62 S13       29.97S
$$

ABBREVIATIONS USED IN REMARKS
   TC - TEMPERATURE IN CELSIUS
  WCI - WIND CHILL INDEX
   HX - HEAT INDEX
  VSB - VISIBILITY




USA.gov is the U.S. government's official web portal to all federal, state and local government web resources and services.